User: anonymous   Login
Location: Alberta Star Party
(51.6612°N, 112.9089°W)
Time: 17:41:09
(UTC-06:00)
Language:

AO-Echo - Orbit

View from above orbital plane
View from above orbital plane
View from above satellite
View from above satellite

Ground track
Ground track

The orbit data is extracted from the following two-line orbital elements,

1 28375U 04025K   15142.42265593  .00000260  00000-0  89417-4 0  9996
2 28375 098.2909 083.6088 0083797 048.0173 312.8115 14.41656623572782
Epoch (UTC): 22 May 2015 10:08:37
Eccentricity: 0.0083797
inclination: 98.2909°
perigee height: 693 km
apogee height: 813 km
right ascension of ascending node: 83.6088°
argument of perigee: 48.0173°
revolutions per day: 14.41656623
mean anomaly at epoch: 312.8115°
orbit number at epoch: 57278

The dashed part of the orbit path shows where the satellite is in the earth's shadow,  

DLR